Regional Weather Roundup
Issued by NWS

Home | Current Version | Previous Version | Graphics & Text | Print | Product List | Glossary On
Versions: 1 2 3 4 5 6 7 8 9 10 11 12 13 14 15 16 17 18 19 20 21 22 23 24 25 26 27 28 29 30 31 32 33 34 35 36 37 38 39 40 41 42 43 44 45 46 47 48 49 50
000
ASUS43 KMKX 151400
RWRWI

WISCONSIN REGIONAL WEATHER ROUNDUP
NATIONAL WEATHER SERVICE MILWAUKEE/SULLIVAN WI
800 AM CST FRI DEC 15 2017

NOTE: "FAIR" INDICATES FEW OR NO CLOUDS BELOW 12,000 FEET WITH NO
SIGNIFICANT WEATHER AND/OR OBSTRUCTIONS TO VISIBILITY.

WIZ001-002-006>008-014>016-023>028-151500-
NORTHWEST WISCONSIN

CITY           SKY/WX    TMP DP  RH WIND       PRES   REMARKS
SUPERIOR ARPT  CLOUDY    14   6  70 NW7       29.89S WCI   4
ASHLAND        LGT SNOW  14  10  84 W7        29.86S FOG     WCI   4
HAYWARD        CLOUDY    14   8  77 VRB3      29.84F
SIREN          CLOUDY    14   8  76 NW3       29.88F
CUMBERLAND     FLURRIES  14   7  73 NW5       29.85F WCI   6
RICE LAKE      CLOUDY    14   7  76 CALM      29.88F
CHETEK           N/A      8   6  89 CALM      29.87F
LADYSMITH      FLURRIES  14  10  81 W5        29.85F WCI   7
EAU CLAIRE     NOT AVBL
MENOMONIE      CLOUDY    19  12  76 NW7       29.88F WCI  10
NEW RICHMOND   CLOUDY    17  11  78 N3        29.89S
OSCEOLA        CLOUDY    17  11  78 NW6       29.92S WCI   8
$$

WIZ003>005-009-010-017-018-151500-
NORTH CENTRAL WISCONSIN

CITY           SKY/WX    TMP DP  RH WIND       PRES   REMARKS
MANITOWISH WTR FLURRIES  11   9  89 W6        29.76S WCI   2
ARBOR VITAE    LGT SNOW  14  10  84 W6        29.76F WCI   5
WOODRUFF       LGT SNOW  14  10  84 W6        29.76F WCI   5
RHINELANDER    LGT SNOW  12   7  80 W5        29.77S WCI   4
EAGLE RIVER    LGT SNOW  12   7  81 W8        29.74S WCI   0
LAND O LAKES   LGT SNOW  12   9  85 W5        29.75S WCI   4
PHILLIPS       LGT SNOW  11   9  89 CALM      29.79F
TOMAHAWK       FLURRIES  11   6  81 NW8       29.80S WCI  -1
MEDFORD        CLOUDY    12   8  82 NW8       29.80S WCI   1
MERRILL        CLOUDY    13   8  78 NW6       29.82R WCI   4
$$

WIZ029-030-035-036-043>047-151500-
CENTRAL WISCONSIN

CITY           SKY/WX    TMP DP  RH WIND       PRES   REMARKS
WAUSAU         CLOUDY    16  11  80 NW10      29.80S WCI   4
MOSINEE        CLOUDY    16  12  86 NW10G17   29.82S WCI   3
MARSHFIELD     CLOUDY    17  11  77 NW15      29.82R WCI   2
STEVENS POINT  CLOUDY    17  12  80 NW9       29.83S WCI   6
WAUPACA        CLOUDY    23  15  73 W9        29.84S WCI  13
WAUTOMA        CLOUDY    20  14  77 W9        29.86R WCI   9
WISC RAPIDS    CLOUDY    19  11  70 W9        29.86S WCI   8
CAMP DOUGLAS   NOT AVBL
$$

WIZ011>013-019>022-031-037>040-048>050-151500-
NORTHEAST WISCONSIN

CITY           SKY/WX    TMP DP  RH WIND       PRES   REMARKS
ANTIGO         FLURRIES  12   7  81 NW13G21   29.78S WCI  -3
SHAWANO        CLOUDY    20  12  71 NW6       29.82S WCI  12
OCONTO         CLEAR     14   7  76 W7        29.81F WCI   3
STURGEON BAY   CLOUDY    18  12  77 W17       29.79S WCI   3
GREEN BAY      CLOUDY    20  10  65 NW12      29.83S WCI   8
MANITOWOC      FLURRIES  20  15  81 W12       29.83S WCI   8
APPLETON       CLOUDY    19  12  73 W10       29.81S WCI   8
CLINTONVILLE   CLOUDY    19  12  73 NW10      29.83S WCI   8
OSHKOSH        CLOUDY    21  15  78 W8G16     29.83S WCI  11
$$

WIZ032>034-041-042-053>061-151500-
SOUTHWEST WISCONSIN

CITY           SKY/WX    TMP DP  RH WIND       PRES   REMARKS
LA CROSSE      CLOUDY    25  17  72 W6        29.90F WCI  18
SPARTA         CLOUDY    22  14  73 CALM      29.90S
VIROQUA        CLOUDY    22  17  83 W8        29.87S WCI  12
BOSCOBEL       CLOUDY    26  15  63 SW5       29.94F WCI  20
PRAIRIE DU CHI CLOUDY    27  17  66 SW3       29.94F
PLATTEVILLE    CLOUDY    25  19  77 W12       29.93F WCI  14
$$

WIZ056-057-062-063-064-067-068-151500-
SOUTH CENTRAL WISCONSIN

CITY           SKY/WX    TMP DP  RH WIND       PRES   REMARKS
REEDSBURG      CLOUDY    22  11  62 NW8       29.88S WCI  13
BARABOO/DELLS  CLOUDY    21  11  64 W7        29.87S WCI  13
LONE ROCK      NOT AVBL
MINERAL POINT  CLOUDY    27  18  69 W10G20    29.90R WCI  17
MADISON        FLURRIES  23  15  71 NW9       29.89S WCI  13
MIDDLETON      CLOUDY    25  13  60 NW13G22   29.89S WCI  14
WATERTOWN      FLURRIES  22  19  89 W8        29.87S WCI  12
MONROE         CLOUDY    27  16  63 W12G18    29.90R WCI  16
JANESVILLE     CLOUDY    27  14  59 W13G18    29.90S WCI  16
$$

WIZ051-052-058>065-066-070>072-151500-
SOUTHEAST WISCONSIN

CITY           SKY/WX    TMP DP  RH WIND       PRES   REMARKS
MILWAUKEE      CLOUDY    24  16  71 W13       29.87S WCI  12
WAUKESHA       FLURRIES  19  16  86 W14       29.87S WCI   6
MILWAUKEE/TIMM CLOUDY    21  14  73 W9        29.87S WCI  11
RACINE         CLOUDY    23  17  78 W8        29.89S WCI  14
BURLINGTON     FLURRIES  23  18  80 W12G20    29.89R WCI  12
KENOSHA        FLURRIES  24  16  71 W13       29.88S WCI  12
FOND DU LAC    CLOUDY    22  13  68 W14       29.84S WCI   9
SHEBOYGAN      CLOUDY    21  16  81 W10       29.83S WCI  10
WEST BEND      FLURRIES  21  18  86 W8G16     29.84S WCI  12
JUNEAU         CLOUDY    20  16  83 W7        29.87S WCI  11
$$

LSZ147-162-151500-
LAKE SUPERIOR

STATION/POSITION TIME  TEMP    WIND        PRES    WAVE
                       AIR SEA DIR/SP/G            HT/PER
                 (UTC) (F)     (DEG/KT/KT) (MB)    (FT/S)
DEVILS ISLAND    1300   17     290/ 18/ 22 1011.9F
SAXON HARBOR     1340   16                 1010.2F
$$

LMZ867-665-643>646-151500-
LAKE MICHIGAN

STATION/POSITION TIME  TEMP    WIND        PRES    WAVE
                       AIR SEA DIR/SP/G            HT/PER
                 (UTC) (F)     (DEG/KT/KT) (MB)    (FT/S)
NORTHPORT PIER   1340   20     300/  7/ 12 1007.8F
KEWAUNEE LAKESHO 1330   19     290/ 10/ 14 1008.9R
SHEBOYGAN LAKESH 1300   22     280/ 13/ 15 1011.5R
PORT WASHINGTON  1340   23     270/  5/ 10 1012.2S
MILWAUKEE LAKESH 1330   24     290/ 13/ 17   N/A
KENOSHA   LAKESH 1300   24     300/ 17/ 21 1011.9
$$

TC  - TEMPERATURE IN CELSIUS
VSB - VISIBILITY IN STATUTE MILES
WCI - WIND CHILL INDEX
HX  - HEAT INDEX





USA.gov is the U.S. government's official web portal to all federal, state and local government web resources and services.